www.pogodaiklimat.ru

Погода и климат >> Архив погоды >> Россия >> Якутия >> Исить


АРХИВ ПОГОДЫ в Исити

Время (UTC), дата Ветер
(напр.,м/с)
 
Видим.   Явления Облачность Т
(С)
Тd
(С)
f
(%)
Тe
(С)
Тes
(С)
Комфортность P
(гПа)
Po
(гПа)
Тmin
(С)
Tmax
(С)
R
(мм)
R24
(мм)
S
(см)
12 18.06 штиль 0 20 км дым 1/0
[]
+21.5 +9.9 48 +23 +23 комфорт 1005.4 990.3 +28.9
15 18.06 штиль 0 10 км дым ясно +16.2 +7.4 56 +16 +16 1006.8 991.4
18 18.06 СЗ 2 20 км дым ясно +11.8 +6.8 71 +11 +11 1008.4 992.7
21 18.06 штиль 0 20 км дым ясно +10.9 +8.5 85 +10 +12 1008.8 993.0
00 19.06 ЮЗ 1 20 км дым 3/1 1000 м
[Cb calv Ac trans]
+16.3 +10.3 68 +17 +25 1008.9 993.4 +10.0
03 19.06 штиль 0 20 км дым 1/0
[Ac trans]
+22.9 +12.6 52 +26 +43 жарко 1007.4 992.3
06 19.06 В 1 20 км дым 3/3 600 м
[Cb calv]
+24.9 +13.3 48 +27 +36 жарко 1005.5 990.5
09 19.06 штиль 0 20 км дым {гроза} 8/8 600 м
[Cb cap]
+24.2 +12.8 49 +26 +27 жарко 1005.7 990.7
12 19.06 З 3 50 км {гроза} 8/8 600 м
[Cb cap]
+21.8 +10.8 50 +24 +24 комфорт 1006.8 991.7 +28.4
15 19.06 СЗ 2 50 км 1/1 1000 м
[Cb calv]
+16.3 +11.1 71 +16 +16 1008.1 992.6
18 19.06 С 1 50 км 3/3 1000 м
[Sc]
+12.7 +10.0 84 +13 +13 1008.8 993.1
21 19.06 штиль 0 50 км 3/3 600 м
[Cb calv Ci sp]
+12.8 +10.7 87 +12 +14 1009.1 993.4
00 20.06 ЮВ 1 50 км 3/1 600 м
[Cb calv Ci fib]
+17.9 +13.1 73 +19 +27 1009.1 993.8 +11.9
03 20.06 З 2 50 км 10/3 1000 м
[Cb calv Cs]
+21.7 +14.4 63 +25 +32 комфорт 1008.4 993.3
06 20.06 З 2 50 км 10/6 600 м
[Cb calv Cs]
+25.4 +16.1 56 +29 +32 душно 1006.8 991.9
09 20.06 З 3 50 км {гроза} 6/4 600 м
[Cb calv Ci sp]
+21.9 +11.1 50 +24 +26 комфорт 1008.0 992.9
12 20.06 З 1 50 км {гроза} 6/0
[Ci fib]
+18.9 +14.2 74 +21 +21 комфорт 1008.8 993.5 +26.2
15 20.06 З 2 50 км 6/0
[Ac trans]
+15.5 +12.4 82 +15 +15 1009.6 994.1
18 20.06 штиль 0 50 км 6/0
[Ac lent]
+13.3 +12.4 94 +13 +13 1010.0 994.4
21 20.06 З 3 50 км ясно +14.9 +12.7 87 +14 +15 1010.6 995.0
00 21.06 З 3 20 км дым ясно +18.2 +13.6 75 +19 +25 1010.0 994.7 +13.3
03 21.06 З 4 20 км дым 6/3 600 м
[Cb calv Ac lent Ci fib]
+24.8 +16.3 59 +28 +33 жарко 1008.6 993.6
06 21.06 З 3 20 км гроза, ливневой дождь 10/10 600 м
[Cb cap]
+19.8 +15.1 74 +22 +22 комфорт 1008.6 993.4
09 21.06 З 2 20 км гроза, ливневой дождь 10/10 600 м
[Cb cap]
+19.6 +14.8 74 +22 +22 комфорт 1008.3 993.1
12 21.06 В 2 20 км гроза без осадков {ливн. осадки} 10/10 600 м
[Cb cap]
+17.8 +16.1 90 +18 +18 1009.6 994.3 +25.2 3
15 21.06 З 1 20 км слаб. ливневой дождь {гроза} 9/9 600 м
[Cb calv]
+15.9 +15.6 98 +17 +17 1010.1 994.6
18 21.06 СЗ 2 50 км {гроза, ливн. осадки} 8/3 1000 м
[Sc diur, vesp Ac lent Ci fib]
+14.3 +13.8 97 +14 +14 1009.1 993.5
21 21.06 штиль 0 50 км 9/6 300 м
[St Ac lent Ci fib]
+15.1 +14.6 97 +15 +15 1009.4 993.9
00 22.06 штиль 0 50 км 6/1 1000 м
[Sc Ac trans Ci fib]
+18.0 +15.8 87 +18 +25 1009.5 994.2 +13.1 2
03 22.06 З 2 50 км 8/3 1000 м
[Cb calv Ci sp]
+22.5 +16.8 70 +27 +35 душно 1007.7 992.6
06 22.06 З 3 50 км 8/5 1000 м
[Cb cap Ci sp]
+26.3 +13.9 46 +28 +33 жарко 1006.3 991.4
09 22.06 З 3
{11}
20 км гроза, ливневой дождь 10/10 600 м
[Cb cap]
+19.4 +14.0 71 +21 +21 комфорт 1008.4 993.2
12 22.06 З 2 50 км в посл. час ливневой дождь {гроза} 10/10 600 м
[Cb cap]
+15.5 +15.0 97 +15 +15 1008.1 992.6 +27.0 28
15 22.06 З 1 20 км 10/8 1000 м
[Sc Ac As]
+14.9 +14.4 97 +15 +15 1008.3 992.7
18 22.06 З 1 20 км слаб. морось 10/3 300 м
[Frnb As op]
+14.3 +13.9 97 +15 +15 1007.9 992.4
21 22.06 З 1 20 км морось 10/8 1000 м
[Frnb As op]
+14.6 +14.6 100 +15 +15 1007.4 991.9
00 23.06 З 2 10 км дождь {морось} 10/8 300 м
[Frnb As op]
+14.8 +14.6 99 +14 +15 1007.2 991.7 +14.0 12
03 23.06 З 2 20 км слаб. дождь 10/8 300 м
[Frnb As op]
+15.3 +15.0 98 +15 +16 1006.5 991.5
06 23.06 З 2 50 км в посл. час дождь 10/8 600 м
[St As op]
+16.4 +15.4 94 +16 +17 1006.8 991.4
09 23.06 З 2 50 км в посл. час дождь 10/8 1000 м
[Sc As op]
+15.7 +14.7 94 +16 +16 1007.4 992.0
12 23.06 СЗ 2 50 км {дождь} 8/4 1000 м
[Sc Ac As]
+12.9 +12.2 96 +12 +12 1008.7 993.0 +16.9 12
15 23.06 З 2 50 км 8/4 1000 м
[Sc Ac As]
+12.1 +11.3 95 +11 +11 1008.6 992.9
18 23.06 З 2 50 км 10/6 1000 м
[Sc Ac As]
+11.5 +10.3 92 +10 +10 1008.6 992.9
21 23.06 З 3 50 км 8/0
[Ac As]
+11.6 +10.4 92 +10 +10 1008.8 993.1
00 24.06 З 1 50 км 9/5 1000 м
[Sc Ac trans]
+13.1 +10.6 85 +13 +16 1008.3 992.7 +11.1 +11.1
03 24.06 ЮЗ 2 50 км 8/6 1000 м
[Sc Ac trans Ci fib]
+17.0 +10.7 66 +17 +21 1007.5 992.2
06 24.06 З 2 50 км 8/4 600 м
[Cb calv Ac trans Ci sp]
+21.2 +9.5 47 +23 +27 комфорт 1006.6 991.5
09 24.06 З 1 50 км 4/3 600 м
[Cb calv Ac trans]
+21.0 +10.8 52 +24 +27 комфорт 1006.3 991.2
12 24.06 штиль 0 50 км 4/3 1000 м
[Sc diur, vesp Ac trans]
+16.1 +12.7 80 +16 +16 1007.0 991.6 +21.9
15 24.06 СЗ 1 50 км 3/3 1000 м
[Sc diur, vesp]
+11.7 +10.5 92 +11 +11 1007.7 992.1
18 24.06 СЗ 1 50 км ясно +9.5 +8.9 96 +9 +9 1007.9 992.2
21 24.06 штиль 0 50 км 10/10 300 м
[St]
+10.3 +9.3 94 +9 +9 1008.6 992.8
00 25.06 ЮЗ 3 50 км ясно +14.9 +10.3 74 +14 +21 1008.2 993.2 +8.4
03 25.06 ЮЗ 2 50 км 1/1 1000 м
[Cu hum]
+20.3 +9.5 50 +22 +35 комфорт 1007.5 992.3
06 25.06 З 2 50 км 3/3 1000 м
[Cu hum]
+24.0 +8.5 37 +25 +32 комфорт 1006.9 991.9
09 25.06 ЮЗ 3 50 км 4/3 1000 м
[Sc diur, vesp Ac trans Ci fib]
+23.0 +9.8 43 +25 +27 комфорт 1006.6 991.6

 

Местоположение метеостанции Исить (Якутия, Россия): широта 60.82 долгота 125.30 высота над уровнем моря 131 м.

В архиве по умолчанию представлена погода в Исити за последнюю неделю. Архивные данные за месяц целиком и за предыдущие месяцы, начиная с января 2011 года, Вы можете получить, выбрав интересующий диапазон дат из раскрывающегося списка и нажав кнопку "Ввод!".


*Определитесь, кто Вы:
робот инопланетянин человек

Внимание! Время в таблицах - всемирное. Для получения местного времени необходимо прибавить поправку, которая равна 9 ч.

Смотрите также архив погоды в соседних городах и на ближайших метеорологических станциях:

Погода в Тонгулахе (Якутия, Россия) (130 км)
Погода в Буяге (Якутия, Россия) (159 км)
Погода в Бердигестяхе (Якутия, Россия) (185 км)
Погода в Томмоте (Якутия, Россия) (212 км)
Погода в Покровске (Якутия, Россия) (217 км)
Погода в Алдане (Якутия, Россия) (247 км)
Погода в Тегюльте (Якутия, Россия) (259 км)
Погода в Якутске (Якутия, Россия) (264 км)
Погода в Олекминске (Якутия, Россия) (271 км)
Погода в Джикимде (Якутия, Россия) (283 км)

Пояснения к столбцам:

Ветер - указаны скорость ветра в м/с - средняя за 10 мин, порывы в срок и между сроками (в фигурных скобках) и направление, откуда дует ветер: С - северный, СВ - северо-восточный, В - восточный, ЮВ - юго-восточный, Ю - южный, ЮЗ - юго-западный, З - западный, СЗ - северо-западный.
Видимость - горизонтальная дальность видимости в метрах или километрах. При видимости от 1 до 10 км при отсутствии осадков обычно наблюдается дымка, при ухудшении видимости до 1 км и менее - туман. В сухую погоду видимость может ухудшаться дымом, пылью или мглою.
Явления - указаны атмосферные явления, наблюдавшиеся в срок или в последний час перед сроком; фигурными скобками обозначены явления, наблюдавшиеся между сроками (за 1-3 часа до срока); квадратными скобками обозначены град или гололедные отложения с указанием их диаметра в мм.
Облачность - указаны через наклонную черту общая и нижняя облачность в баллах и высота нижней границы облаков в метрах; квадратными скобками обозначены формы облаков: Ci - перистые, Cs - перисто-слоистые, Cc - перисто-кучевые, Ac - высококучевые, As - высокослоистые, Sc - слоисто-кучевые, Ns - слоисто-дождевые, Cu - кучевые, Cb - кучево-дождевые. Подробнее классификацию облаков см. в Атласе облаков (PDF).
T - Температура воздуха - температура, измеренная на высоте 2 м над землей.
Td - Температура точки росы - температура, при понижении до которой содержащийся в воздухе водяной пар достигнет насыщения.
f - Относительная влажность воздуха - влажноcть воздуха, измеренная на высоте 2 м над землей.
Te - Эффективная температура - температура, которую ощущает одетый по сезону человек в тени. Характеристика душности погоды. При расчете учитывается влияние влажности воздуха и скорости ветра на теплоощущения человека.
Tes - Эффективная температура на солнце - температура, которую ощущает человек, с поправкой на солнечный нагрев. Характеристика знойности погоды. Зависит от высоты солнца над горизонтом, облачности и скорости ветра. Ночью, в пасмурную погоду, а также при ветре 12 м/с и более поправка равна нулю.
P - Атмосферное давление - приведенное к уровню моря атмосферное давление.
Po - Атмосферное давление - измеренное на уровне метеостанции атмосферное давление.
Tmin - Минимальная температура - минимум температуры воздуха на высоте 2 м над землей.
Tmax - Максимальная температура - максимум температуры воздуха на высоте 2 м над землей.
R - Количество осадков - Количество выпавших осадков за период времени, мм. При наведении курсора мыши на число - период времени, за который выпало указанное количество осадков.
R24 - Количество осадков - Количество выпавших осадков за 24 часа, мм.
S - Снежный покров - Высота снежного покрова, см. При наведении курсора мыши на число - состояние снежного покрова и степень покрытия местности в баллах.